Temperature
17 17 17 17 17 16 16 16 16 16 16 16 15 15 15 15 15 15 14 14 14 14 14 14 14 14 14 13 13 13 13 13 13 13 12 12 12 12 12 12 12 12 12
17 17 17 17 17 16 16 16 16 16 16 16 15 15 15 15 15 15 14 14 14 14 14 14 14 14 14 13 13 13 13 13 12 12 12 12 12 12 11 12 12 11 11
17 17 17 17 17 17 16 16 16 16 16 15 15 15 15 15 15 14 14 14 14 14 14 14 14 14 13 13 13 13 13 12 12 12 12 12 11 11 11 11 11 11 11
17 17 17 17 17 17 17 16 16 16 16 15 15 15 15 15 15 14 14 14 14 14 14 14 13 13 13 13 13 13 12 12 12 12 12 11 11 11 11 11 11 11 11
18 17 17 17 17 17 16 16 16 16 16 15 15 15 15 15 14 14 14 14 14 14 14 13 13 13 13 13 13 12 12 12 12 12 11 11 11 11 11 11 10 10 10
18 17 17 17 17 17 16 16 16 16 16 15 15 15 15 15 14 14 14 14 14 14 13 13 13 13 13 13 12 12 12 12 11 11 11 11 11 11 10 10 10 10 10
18 17 17 17 17 17 16 16 16 16 16 15 15 15 15 14 14 14 14 14 13 13 13 13 13 13 13 12 12 12 12 11 11 11 11 11 10 10 10 10 10 10 10
18 17 17 17 17 17 16 16 16 16 15 15 15 15 15 14 14 14 14 13 13 13 13 13 13 12 12 12 12 12 12 11 11 11 10 10 10 10 10 10 10 10 10
17 17 17 17 17 17 16 16 16 15 15 15 15 15 15 14 14 14 13 13 13 13 13 12 12 12 12 12 12 11 11 11 11 10 10 10 10 10 10 9 9 9 9
18 17 17 17 17 16 16 16 16 15 15 15 15 14 14 14 14 13 13 13 13 12 12 12 12 12 11 11 11 11 11 11 11 10 10 10 10 9 9 9 9 9 9
18 17 17 17 16 16 16 16 15 15 15 15 14 14 14 14 13 13 13 13 12 12 12 12 12 12 11 11 11 11 10 10 10 10 10 10 9 9 9 9 9 8 8
17 17 17 16 16 16 16 15 15 15 15 14 14 14 14 13 13 13 13 12 12 12 12 12 11 11 11 11 11 10 10 10 10 10 10 9 9 9 9 9 8 8 8
17 17 17 16 16 16 16 15 15 15 14 14 14 14 14 13 13 13 12 12 12 12 12 11 11 11 11 11 10 10 10 10 9 9 9 9 9 9 9 8 8 8 8
17 16 16 16 16 15 15 15 15 15 14 14 14 14 13 13 13 13 12 12 12 12 11 11 11 11 10 10 10 10 10 9 9 9 9 9 9 8 8 8 8 8 8
16 16 16 15 15 15 15 15 15 14 14 14 14 14 13 13 13 13 12 12 12 12 11 11 11 11 11 10 10 10 9 9 9 9 9 9 8 8 8 8 7 7 7
16 15 15 15 15 15 14 14 14 14 14 14 13 13 13 13 13 12 12 12 11 11 11 11 11 11 10 10 10 10 9 9 9 8 8 8 8 7 7 7 7 7 7
15 15 15 14 14 14 14 14 14 14 13 13 13 13 13 12 12 12 12 11 11 11 11 11 10 10 10 10 10 9 9 9 8 8 8 7 7 7 7 7 7 7 7
15 15 14 14 14 14 13 13 13 13 13 13 13 13 12 12 12 11 11 11 11 11 10 10 10 10 9 9 9 9 9 8 8 8 8 7 7 7 7 6 6 6 6
14 14 14 14 13 13 13 13 13 12 12 12 12 12 12 11 11 11 11 10 10 10 10 10 10 9 9 9 9 8 8 8 8 7 7 7 7 7 6 6 6 6 5
14 14 13 13 13 13 12 12 12 12 12 12 12 12 11 11 11 11 10 10 10 10 10 10 9 9 9 8 8 8 8 7 7 7 7 7 6 6 6 6 5 5 5
13 13 13 13 12 12 12 12 12 12 11 11 11 11 11 10 10 10 10 10 9 9 9 9 9 9 8 8 8 8 7 7 7 6 6 6 6 6 6 5 5 5 5
13 13 12 12 12 12 11 11 11 11 11 11 11 10 10 10 10 9 9 9 9 9 9 9 9 8 8 8 7 7 7 7 6 6 6 6 6 6 5 5 5 5 5
12 12 12 12 11 11 11 11 11 11 11 10 10 10 10 9 9 9 9 9 9 8 8 8 8 8 8 7 7 7 6 6 6 6 5 5 5 5 5 5 4 4 4
12 12 11 11 11 11 11 10 10 10 10 10 9 9 9 9 9 8 8 8 8 8 8 8 7 7 7 7 7 6 6 6 6 5 5 5 5 5 4 4 4 4 4
11 11 11 11 10 10 10 10 10 10 9 9 9 9 9 8 8 8 8 7 7 7 7 7 7 7 7 6 6 6 6 5 5 5 5 4 4 4 4 4 3 3 3
11 11 10 10 10 10 9 9 9 9 9 9 8 8 8 8 8 7 7 7 7 7 7 7 7 6 6 6 6 6 5 5 5 4 4 4 4 3 3 3 3 2 2
Wind_Speed
7 6 6 5 6 6 6 6 5 4 5 5 4 4 3 3 3 4 3 3 4 3 3 3 3 2 3 2 2 2 2 2 2 2 2 2 3 3 5 5 5 5 5
7 6 6 5 6 6 6 6 6 6 5 5 4 4 3 3 3 3 3 3 3 3 2 3 2 2 3 3 2 2 1 1 2 1 2 2 2 3 3 3 5 5 4
7 7 6 6 6 6 6 6 6 5 4 4 4 4 4 3 3 3 3 3 3 2 2 2 2 3 3 2 2 2 1 2 2 2 0 1 2 3 3 3 4 4 4
8 8 8 7 7 7 6 6 6 6 6 5 4 5 4 4 4 3 3 3 2 2 2 2 2 2 2 2 2 1 2 2 2 1 1 1 2 3 2 3 4 3 3
8 8 8 7 7 6 6 6 5 6 6 6 5 4 4 4 4 4 4 4 3 2 2 1 1 2 2 2 2 2 2 2 1 1 1 1 2 2 2 2 3 3 3
9 9 7 7 7 7 6 6 6 5 5 5 5 5 4 3 5 7 6 4 3 3 2 1 1 2 2 3 2 2 2 2 2 1 1 1 2 2 1 1 1 3 3
8 7 7 7 7 7 7 6 6 6 5 5 5 5 4 4 6 7 7 5 4 3 2 1 1 1 2 2 2 3 2 1 1 3 2 3 3 3 2 1 1 2 3
8 7 7 7 7 7 7 7 6 5 5 5 5 5 4 4 6 6 8 5 4 3 3 3 2 0 1 2 2 2 2 2 2 1 3 4 4 4 3 3 3 3 3
9 8 8 8 8 8 8 8 6 5 5 5 5 6 5 4 5 6 7 4 2 2 1 2 2 2 1 2 2 1 2 4 4 3 2 3 4 4 2 1 1 1 3
10 10 8 8 9 9 9 7 5 6 6 6 5 5 6 5 5 7 7 3 3 1 1 2 2 3 2 3 2 1 2 3 3 4 4 5 4 4 3 2 2 2 2
9 8 8 8 8 8 7 6 6 6 5 5 5 4 4 5 5 6 7 4 4 3 2 2 3 3 3 3 3 3 4 3 2 2 3 3 3 3 3 3 3 3 3
8 8 8 7 7 7 6 6 6 6 6 5 4 3 2 3 4 5 7 6 5 4 4 3 3 3 3 3 2 3 3 1 1 1 2 3 3 3 3 4 4 5 6
8 8 7 6 6 6 7 7 5 5 5 5 4 4 3 2 3 5 7 7 6 4 3 4 4 3 3 3 3 3 2 1 1 1 3 4 3 4 3 3 4 4 5
8 7 7 6 6 5 5 6 6 6 5 5 5 5 3 2 2 2 3 3 4 3 2 2 3 2 2 2 2 2 2 2 2 3 3 4 3 2 2 2 3 3 3
7 7 6 6 6 6 5 5 6 6 7 7 6 6 5 5 6 7 5 4 4 3 2 0 0 1 1 2 2 2 2 2 2 3 3 3 3 3 3 3 2 2 3
6 6 5 5 5 5 4 2 2 3 5 7 7 6 5 6 6 7 8 7 6 5 3 1 2 3 4 4 4 3 3 3 3 3 3 3 4 4 4 3 2 3 4
7 6 5 5 5 5 5 5 3 1 1 4 6 7 6 6 6 6 7 6 5 6 3 3 4 4 4 4 4 4 4 4 3 3 4 4 4 4 4 4 3 3 5
6 6 6 5 5 5 5 5 5 4 2 2 3 6 7 6 6 6 5 4 2 3 3 4 4 4 4 4 4 4 4 4 3 3 4 4 4 4 4 4 4 4 5
5 4 5 4 5 5 4 4 4 4 4 2 1 2 4 4 3 4 5 3 4 4 4 5 5 5 4 5 4 4 4 4 4 4 4 4 4 4 4 5 5 7 6
4 6 5 5 4 4 4 4 4 4 4 4 4 3 2 2 1 2 3 4 4 4 5 5 5 5 4 4 4 3 4 4 4 4 4 4 4 4 5 6 5 5 6
3 4 6 5 4 5 4 5 5 4 4 4 4 4 5 4 4 4 4 4 5 5 5 4 4 4 4 3 3 3 4 4 4 4 4 4 4 4 5 5 6 6 6
3 3 3 4 4 4 4 4 4 4 4 4 3 3 6 3 3 3 4 4 4 4 3 3 3 3 3 3 3 3 3 4 4 4 4 4 4 5 5 5 5 5 6
4 3 3 3 3 3 3 3 3 3 3 3 3 2 3 3 3 3 3 3 2 2 2 2 2 3 3 3 3 3 3 4 4 4 4 4 4 4 4 5 6 6 6
4 4 3 3 2 3 3 3 3 3 3 3 3 2 3 3 3 3 2 2 2 2 2 2 3 3 3 2 2 3 4 5 5 4 4 4 4 4 4 5 5 6 7
3 3 3 3 3 3 3 3 3 3 3 3 3 2 2 2 2 2 2 2 1 2 2 3 2 3 3 4 3 3 4 5 5 4 3 3 4 4 4 5 5 6 6
3 3 3 3 3 3 3 3 2 2 2 2 2 2 2 2 2 2 1 1 1 2 2 2 2 2 2 2 3 4 4 5 5 5 4 2 2 3 4 4 6 5 6
Wind_Direction
181 179 172 177 171 161 163 170 166 155 154 159 153 141 128 115 99 93 89 87 82 62 59 78 63 55 57 43 57 70 86 121 153 285 304 330 7 4 6 10 8 15 18
180 173 175 177 166 164 171 177 170 166 167 162 149 144 143 137 127 119 114 102 98 86 71 80 62 67 55 46 59 63 74 115 144 180 323 343 350 340 349 358 4 9 11
177 175 178 176 174 177 179 176 172 169 168 156 150 151 152 151 146 141 130 122 115 117 118 116 114 96 72 55 63 62 53 70 100 134 296 324 336 348 357 357 358 356 2
178 178 183 188 187 184 178 173 170 167 164 163 158 157 156 153 151 146 133 124 110 99 112 122 129 129 140 128 91 84 86 76 75 89 35 342 335 337 13 360 350 342 336
179 184 191 189 183 176 171 171 169 166 167 166 157 154 155 154 159 151 148 139 125 101 76 83 126 123 131 137 121 129 110 99 89 85 33 358 335 347 342 323 333 324 321
181 189 187 179 179 179 175 167 161 163 163 158 163 161 160 173 167 161 152 143 138 130 115 59 52 68 69 81 99 119 134 137 162 164 221 247 269 267 281 307 327 352 324
178 182 181 180 181 183 173 163 167 170 162 161 167 161 167 179 164 159 155 148 146 152 154 151 103 57 74 77 53 47 36 57 168 175 199 235 242 238 228 274 271 270 266
177 179 179 180 183 178 170 176 178 169 165 166 169 170 171 185 170 158 151 141 145 161 175 177 158 175 130 120 85 34 357 336 318 234 211 234 239 231 212 224 238 267 281
184 187 187 183 181 177 179 183 178 169 170 172 172 173 178 198 180 162 147 143 149 181 201 181 170 191 205 139 111 52 336 322 330 329 310 283 282 281 236 148 333 341 312
193 193 189 183 183 185 186 182 173 170 178 174 177 184 184 195 191 172 155 151 165 198 242 246 216 205 208 170 163 188 275 288 315 339 342 330 321 315 307 216 214 239 279
189 182 182 184 185 185 181 176 170 168 165 173 180 190 194 201 199 185 170 166 179 190 217 245 250 235 216 204 195 213 249 267 280 297 308 317 324 322 310 281 233 214 227
168 170 177 179 180 174 166 170 169 164 166 175 178 191 213 218 208 202 190 186 181 185 216 231 241 237 215 222 228 255 273 304 309 320 316 310 309 301 291 285 272 253 241
160 169 174 172 173 165 166 167 162 167 173 180 180 196 218 223 221 212 202 198 193 196 222 226 227 237 237 256 266 268 276 280 269 289 286 283 278 277 290 302 305 294 284
164 171 170 168 169 165 166 168 168 174 179 182 185 197 206 211 220 217 213 210 205 211 230 240 239 241 232 258 289 289 261 233 234 253 271 279 291 296 291 291 298 306 304
167 170 171 173 173 172 174 179 182 192 188 186 198 195 192 216 225 204 191 199 200 204 174 166 258 267 263 272 269 268 263 266 264 265 268 284 292 292 290 288 282 290 282
164 171 175 173 170 168 166 158 182 186 189 191 191 190 211 221 215 199 201 202 196 177 151 193 231 234 240 248 253 263 259 256 258 257 262 271 275 279 287 292 283 278 280
168 172 171 171 171 171 171 174 184 309 213 204 205 204 212 218 212 204 203 199 187 166 176 217 230 235 241 246 247 252 261 260 252 250 258 264 267 271 277 282 283 284 282
167 170 169 174 176 178 182 184 184 186 209 259 246 226 222 217 211 207 189 156 176 186 212 225 235 239 242 245 246 250 261 271 269 264 263 266 264 266 271 277 276 275 279
161 169 170 169 173 175 174 175 182 189 197 213 246 264 236 220 210 197 167 176 201 218 226 233 237 239 243 244 245 248 252 259 264 265 267 267 268 262 267 269 272 275 276
170 170 163 164 168 169 171 177 184 192 199 206 216 221 182 140 192 213 208 211 215 225 228 233 239 240 241 244 248 251 258 264 267 264 267 271 272 265 264 267 268 272 271
160 167 162 161 174 179 182 189 192 194 203 212 221 215 189 192 205 212 218 223 223 227 230 234 239 243 244 247 247 250 254 263 265 264 267 270 271 269 269 268 267 266 271
156 162 166 170 176 180 185 190 191 196 203 207 216 211 198 195 200 212 226 237 237 234 228 227 234 241 239 239 243 245 252 263 268 267 269 273 273 272 273 274 274 274 274
150 156 161 169 173 175 175 179 182 190 197 202 201 193 191 206 212 220 232 241 242 243 237 224 236 253 253 248 241 231 244 256 264 265 270 273 272 272 274 278 280 282 278
153 158 163 170 171 172 177 185 190 192 192 191 192 196 198 206 215 219 227 236 242 251 251 238 236 243 245 252 263 260 261 272 274 268 263 267 270 275 274 279 280 282 283
156 161 165 171 176 180 181 185 189 193 192 189 189 189 189 196 209 222 225 226 242 254 262 258 248 245 246 247 258 275 285 290 293 293 275 264 269 271 276 281 285 288 287
162 170 174 174 177 181 183 187 190 190 190 190 188 187 188 193 207 216 216 216 241 269 277 276 268 252 250 257 271 283 291 295 296 299 299 287 281 286 288 284 284 284 285
Height
1558 1559 1561 1562 1563 1564 1565 1566 1566 1567 1567 1567 1568 1568 1568 1567 1567 1567 1566 1566 1565 1565 1564 1564 1564 1563 1562 1562 1561 1560 1560 1560 1558 1558 1557 1556 1554 1552 1550 1548 1546 1544 1542
1556 1558 1559 1561 1562 1563 1564 1565 1566 1566 1566 1567 1567 1567 1567 1567 1567 1566 1566 1566 1565 1565 1564 1564 1563 1563 1562 1561 1560 1559 1559 1558 1558 1556 1555 1554 1553 1551 1550 1548 1546 1544 1542
1554 1556 1557 1559 1560 1561 1563 1564 1565 1565 1566 1566 1566 1567 1567 1567 1567 1566 1566 1566 1565 1565 1564 1564 1563 1562 1561 1560 1559 1559 1558 1557 1556 1555 1554 1553 1552 1550 1549 1547 1545 1543 1541
1551 1553 1555 1556 1558 1560 1561 1562 1563 1564 1564 1565 1565 1566 1566 1566 1566 1566 1566 1565 1565 1564 1564 1563 1562 1562 1560 1560 1559 1558 1557 1556 1555 1554 1553 1552 1551 1549 1548 1546 1544 1543 1541
1548 1550 1552 1554 1556 1558 1559 1560 1561 1562 1563 1564 1564 1565 1565 1565 1565 1565 1565 1564 1564 1563 1563 1562 1562 1561 1560 1559 1558 1557 1556 1555 1554 1553 1552 1551 1549 1548 1547 1545 1544 1542 1540
1545 1547 1549 1552 1553 1555 1557 1558 1559 1560 1561 1562 1562 1563 1563 1563 1564 1564 1564 1563 1563 1562 1562 1561 1561 1560 1559 1558 1557 1556 1555 1554 1553 1552 1550 1549 1548 1547 1546 1544 1542 1540 1539
1542 1544 1546 1549 1550 1552 1554 1556 1557 1558 1559 1560 1560 1561 1561 1562 1562 1562 1562 1562 1561 1561 1560 1560 1559 1558 1557 1556 1555 1555 1554 1552 1552 1551 1549 1548 1547 1545 1544 1543 1541 1539 1538
1538 1540 1543 1545 1547 1550 1551 1553 1554 1556 1557 1557 1558 1559 1559 1559 1560 1560 1560 1560 1560 1559 1559 1558 1558 1557 1556 1555 1554 1553 1552 1551 1550 1548 1547 1546 1545 1544 1542 1541 1540 1538 1536
1534 1537 1539 1541 1544 1546 1548 1550 1551 1553 1554 1555 1556 1556 1557 1557 1558 1558 1558 1558 1558 1557 1557 1557 1556 1555 1554 1553 1552 1551 1550 1549 1548 1547 1545 1544 1543 1542 1540 1539 1537 1535 1533
1530 1533 1536 1538 1540 1542 1545 1547 1548 1550 1551 1552 1553 1554 1554 1555 1555 1556 1556 1555 1555 1555 1555 1555 1554 1553 1552 1551 1550 1549 1548 1547 1545 1544 1543 1542 1540 1539 1538 1537 1535 1533 1531
1527 1530 1533 1535 1537 1540 1542 1544 1545 1547 1548 1549 1550 1551 1552 1552 1553 1553 1553 1553 1553 1553 1552 1552 1551 1551 1550 1549 1548 1547 1546 1545 1543 1542 1540 1539 1538 1536 1535 1534 1532 1531 1529
1524 1527 1529 1532 1534 1536 1539 1540 1542 1544 1545 1546 1547 1548 1549 1549 1550 1550 1550 1550 1550 1550 1549 1549 1549 1549 1548 1547 1546 1545 1544 1542 1541 1539 1538 1536 1535 1533 1532 1531 1529 1528 1526
1522 1524 1526 1529 1531 1533 1535 1537 1539 1540 1542 1543 1544 1545 1545 1546 1547 1547 1547 1547 1547 1547 1547 1546 1546 1546 1545 1544 1543 1542 1541 1539 1538 1536 1534 1533 1532 1530 1529 1527 1526 1524 1523
1518 1521 1523 1525 1527 1530 1532 1534 1535 1537 1538 1539 1540 1541 1542 1543 1544 1544 1544 1544 1544 1544 1544 1543 1543 1542 1542 1541 1540 1539 1537 1536 1535 1533 1531 1530 1529 1527 1525 1523 1522 1520 1518
1516 1518 1520 1522 1524 1526 1528 1530 1532 1533 1535 1536 1537 1538 1539 1539 1540 1541 1541 1541 1541 1541 1540 1540 1539 1539 1537 1537 1536 1535 1534 1532 1531 1529 1528 1526 1524 1523 1521 1520 1518 1516 1514
1513 1515 1517 1519 1521 1523 1525 1527 1529 1531 1532 1534 1535 1535 1536 1537 1537 1538 1538 1538 1538 1538 1537 1536 1535 1534 1533 1533 1532 1531 1530 1528 1527 1525 1524 1522 1521 1519 1517 1516 1514 1512 1510
1511 1512 1514 1516 1517 1519 1521 1523 1525 1527 1529 1530 1531 1532 1532 1533 1533 1534 1534 1534 1534 1533 1532 1532 1531 1530 1530 1529 1528 1527 1525 1524 1523 1521 1519 1518 1516 1515 1513 1511 1509 1507 1505
1509 1510 1511 1513 1514 1516 1518 1520 1521 1523 1524 1525 1527 1527 1528 1529 1529 1529 1529 1529 1529 1528 1528 1527 1527 1526 1525 1524 1523 1522 1521 1520 1518 1517 1515 1513 1512 1510 1508 1506 1504 1502 1500
1506 1507 1508 1510 1512 1513 1515 1516 1518 1519 1520 1521 1522 1523 1524 1524 1525 1525 1524 1524 1524 1524 1523 1523 1522 1522 1521 1520 1518 1517 1516 1514 1513 1512 1510 1509 1507 1505 1503 1502 1500 1497 1495
1504 1505 1506 1507 1509 1510 1511 1513 1514 1515 1516 1517 1518 1518 1519 1519 1519 1519 1519 1519 1519 1519 1519 1518 1518 1517 1516 1515 1513 1512 1511 1509 1508 1507 1505 1504 1502 1500 1498 1496 1494 1492 1489
1501 1502 1503 1504 1505 1506 1508 1509 1510 1511 1512 1513 1513 1514 1514 1514 1514 1515 1515 1514 1514 1514 1514 1514 1513 1512 1511 1509 1508 1507 1506 1504 1503 1501 1500 1498 1497 1495 1493 1491 1489 1487 1484
1498 1499 1500 1501 1502 1503 1504 1505 1506 1507 1508 1508 1509 1509 1510 1510 1510 1510 1510 1510 1509 1509 1509 1509 1508 1507 1506 1505 1503 1502 1500 1499 1497 1495 1494 1492 1490 1489 1487 1485 1483 1481 1478
1496 1496 1497 1498 1499 1500 1501 1502 1502 1503 1504 1504 1504 1505 1505 1505 1505 1505 1505 1505 1505 1504 1504 1504 1503 1502 1501 1500 1498 1497 1495 1493 1492 1490 1488 1486 1484 1482 1481 1479 1476 1474 1472
1493 1493 1494 1494 1495 1496 1497 1497 1498 1499 1499 1500 1500 1500 1500 1500 1501 1501 1501 1500 1500 1499 1499 1498 1497 1497 1495 1494 1493 1491 1490 1488 1486 1484 1482 1480 1478 1476 1474 1472 1470 1468 1466
1489 1490 1490 1491 1492 1492 1493 1493 1494 1495 1495 1495 1496 1496 1496 1496 1496 1496 1496 1495 1495 1494 1493 1493 1492 1491 1490 1488 1487 1486 1484 1482 1481 1478 1476 1474 1472 1470 1468 1466 1464 1461 1460
1486 1486 1487 1488 1488 1489 1489 1490 1490 1490 1491 1491 1491 1491 1491 1491 1491 1491 1491 1490 1490 1489 1488 1487 1486 1485 1484 1483 1481 1480 1479 1477 1475 1473 1471 1468 1466 1464 1462 1460 1458 1456 1454